Back to catalog

STARLINK-36877

AliveCommunicationsSSO
NORAD 67896·PAYLOAD·🇺🇸 United States

Launched Feb 21, 2026 from Vandenberg Space Force Base

Loading…

Next Passes (next 24 hours)

TLE

FreshSource: CelesTrak SupGP

Epoch: Sep 15, 2026, 04:03 UTC

1 67896C 26035T   26258.16923611  .00101050  00000+0  31370-2 0  2584
2 67896  97.2847 190.1313 0002042  97.7577  74.5019 15.33385991    17

Track STARLINK-36877 in real time with AllMySat

Download on the App Store